This demonstration page uses our WeatherBlox Daily Observations layout. Learn more.

Left ArrowRight Arrow

30.21309, -93.2044

Hourly Observations for July 27, 2021

Temp ( °F °C ) Dew Point ( °F °C ) Humidity (%) Winds ( mph kmh ) Pressure ( in mb ) Visibility ( mi km ) Precip ( " mm )
12:15 am 00:15 Cloudy with Strong Thunderstorms 80 26.9 77 24.8 88 88 W 9 15 29.99 1016 10 16 0.03 0.76
12:35 am 00:35 Partly Cloudy with Thunderstorms 80 26.9 74 23.2 80 80 WSW 8 13 29.97 1015 10 16 0.04 1.02
12:55 am 00:55 Clear with Thunderstorms 82 27.5 76 24.3 83 83 S 6 9 29.97 1015 7 11 0.04 1.02
1:15 am 01:15 Partly Cloudy with Thunderstorms 79 26.1 76 24.5 91 91 SE 13 20 29.99 1016 7 11 0.00 0.00
1:35 am 01:35 Partly Cloudy 78 25.6 74 23.5 88 88 SSE 9 15 29.97 1015 10 16 0.00 0.00
1:55 am 01:55 Partly Cloudy with Nearby Thunderstorms 77 25.2 73 22.5 85 85 SSE 3 6 29.96 1015 10 16 0.00 0.00
2:15 am 02:15 Clear with Thunderstorms 78 25.5 72 22.1 82 82 W 6 9 29.95 1014 10 16 0.00 0.00
2:35 am 02:35 Clear with Nearby Thunderstorms 78 25.5 73 22.7 85 85 NNW 3 6 29.95 1014 10 16 0.00 0.00
2:55 am 02:55 Clear 78 25.4 74 23.1 87 87 Calm 29.95 1014 10 16 0.00 0.00
3:15 am 03:15 Clear 77 24.8 73 22.9 89 89 SE 5 7 29.96 1015 10 16 0.00 0.00
3:35 am 03:35 Clear 77 25.2 73 23 88 88 Calm 29.96 1015 10 16 0.00 0.00
3:55 am 03:55 Clear 78 25.5 74 23.2 87 87 SSW 3 6 29.94 1014 10 16 0.00 0.00
4:15 am 04:15 Clear 78 25.3 74 23.3 89 89 Calm 29.96 1015 10 16 0.00 0.00
4:35 am 04:35 Partly Cloudy 77 25.1 74 23.4 90 90 NNE 3 6 29.96 1015 10 16 0.00 0.00
4:55 am 04:55 Mostly Cloudy 77 25.1 73 23 88 88 ENE 5 7 29.97 1015 10 16 0.00 0.00
5:15 am 05:15 Mostly Cloudy 77 24.9 73 22.8 88 88 ESE 7 11 29.96 1015 10 16 0.00 0.00
5:35 am 05:35 Clear 78 25.5 74 23.1 87 87 SSW 6 9 29.95 1014 10 16 0.00 0.00
6:00 am 06:00 Mostly Cloudy 79 26 73 23 84 84 Calm 29.96 1015 10 16 0.00 0.00
6:50 am 06:50 Mostly Cloudy 81 27 75 24 84 84 S 6 9 29.97 1015 10 16 0.00 0.00
7:45 am 07:45 Mostly Cloudy 81 27 75 24 84 84 SSE 6 9 30.00 1016 10 16 0.00 0.00
8:45 am 08:45 Mostly Sunny 82 28 75 24 79 79 SSE 5 7 30.01 1016 10 16 0.00 0.00
9:50 am 09:50 Partly Cloudy 86 30 77 25 75 75 VRB 7 11 30.00 1016 10 16 0.00 0.00
10:50 am 10:50 Mostly Cloudy 88 31 75 24 66 66 SW 6 9 30.02 1017 10 16 0.00 0.00
11:45 am 11:45 Mostly Cloudy 90 32 75 24 63 63 WSW 8 13 30.02 1017 10 16 0.00 0.00
12:45 pm 12:45 Mostly Cloudy 91 33 73 23 56 56 SW 6 9 30.00 1016 10 16 0.00 0.00
1:45 pm 13:45 Mostly Cloudy 91 33 75 24 59 59 SW 6 9 29.98 1015 10 16 0.00 0.00
2:45 pm 14:45 Mostly Cloudy 91 33 77 25 63 63 SSW 6 9 29.96 1015 10 16 0.00 0.00
3:54 pm 15:54 Partly Cloudy 93 34 77 25 59 59 SSW 9 15 29.93 1014 10 16 0.00 0.00
4:45 pm 16:45 Partly Cloudy with Thunderstorms 93 34 77 25 59 59 S 9 15 29.93 1014 10 16 0.00 0.00
5:49 pm 17:49 Mostly Cloudy with Thunderstorms 82 28 72 22 70 70 WNW 21 33 29.95 1014 7 11 0.00 0.00
6:45 pm 18:45 Cloudy with Thunderstorms 75 24 72 22 89 89 NE 6 9 29.98 1015 5 8 0.00 0.00
7:53 pm 19:53 Mostly Cloudy 75 24 73 23 94 94 NW 6 9 29.99 1016 10 16 0.00 0.00
8:49 pm 20:49 Mostly Clear 77 25 73 23 89 89 WNW 8 13 30.01 1016 10 16 0.00 0.00
9:48 pm 21:48 Mostly Clear 75 24 72 22 89 89 N 6 9 30.01 1016 10 16 0.00 0.00
10:15 pm 22:15 Clear 75 24.1 72 22.3 90 90 ENE 5 7 30.01 1016 10 16 0.00 0.00
10:35 pm 22:35 Clear 75 23.9 72 22.4 91 91 SE 5 7 30.01 1016 10 16 0.00 0.00
10:55 pm 22:55 Clear 75 24 73 22.6 92 92 Calm 30.01 1016 10 16 0.00 0.00
11:15 pm 23:15 Clear 76 24.3 73 22.7 91 91 Calm 30.02 1017 10 16 0.00 0.00
11:35 pm 23:35 Clear 75 24.1 73 22.8 92 92 SE 3 6 30.02 1017 10 16 0.00 0.00
11:55 pm 23:55 Clear 75 24.1 73 22.9 93 93 Calm 30.03 1017 10 16 0.00 0.00

Powered by AerisWeather